timestamp,wind_dir_avg,wind_spd_max_dir,wind_spd_avg,wind_spd_gust,battery_voltage,lat,long
2018-11-02 00:00:00+00:00,242.0,247.0,5.57,7.0,,47.59359,-54.27349
2018-11-02 00:10:00+00:00,245.0,242.0,4.97,5.61,,47.59359,-54.27349
2018-11-02 00:20:00+00:00,244.0,251.0,4.96,6.69,,47.59359,-54.27349
2018-11-02 00:30:00+00:00,240.0,251.0,5.1,6.01,,47.59359,-54.27349
2018-11-02 00:40:00+00:00,241.0,239.0,4.2,4.91,,47.59359,-54.27349
2018-11-02 00:50:00+00:00,238.0,252.0,4.89,5.5,,47.59359,-54.27349
2018-11-02 01:00:00+00:00,243.0,251.0,5.49,6.83,,47.59359,-54.27349
2018-11-02 01:10:00+00:00,235.0,231.0,6.0,7.16,,47.59359,-54.27349
2018-11-02 01:20:00+00:00,239.0,240.0,5.75,6.58,,47.59359,-54.27349
2018-11-02 01:30:00+00:00,237.0,238.0,6.23,7.31,,47.59359,-54.27349
2018-11-02 01:40:00+00:00,241.0,242.0,5.84,6.92,,47.59359,-54.27349
2018-11-02 01:50:00+00:00,246.0,243.0,5.05,5.88,,47.59359,-54.27349
2018-11-02 02:00:00+00:00,245.0,241.0,5.57,6.6,,47.59359,-54.27349
2018-11-02 02:10:00+00:00,248.0,258.0,6.01,6.81,,47.59359,-54.27349
2018-11-02 02:20:00+00:00,237.0,243.0,7.51,8.64,,47.59359,-54.27349
2018-11-02 02:30:00+00:00,247.0,248.0,6.09,6.94,,47.59359,-54.27349
2018-11-02 02:40:00+00:00,248.0,256.0,5.04,5.94,,47.59359,-54.27349
2018-11-02 02:50:00+00:00,251.0,255.0,5.39,6.15,,47.59359,-54.27349
2018-11-02 03:00:00+00:00,243.0,241.0,5.08,5.56,,47.59359,-54.27349
2018-11-02 03:10:00+00:00,252.0,253.0,6.17,7.42,,47.59359,-54.27349
2018-11-02 03:20:00+00:00,251.0,246.0,6.01,7.09,,47.59359,-54.27349
2018-11-02 03:30:00+00:00,251.0,256.0,7.05,7.68,,47.59359,-54.27349
2018-11-02 03:40:00+00:00,254.0,256.0,7.38,7.92,,47.59359,-54.27349
2018-11-02 03:50:00+00:00,237.0,236.0,6.72,8.23,,47.59359,-54.27349
2018-11-02 04:00:00+00:00,239.0,231.0,5.96,7.16,,47.59359,-54.27349
2018-11-02 04:10:00+00:00,237.0,233.0,7.02,7.96,,47.59359,-54.27349
2018-11-02 04:20:00+00:00,231.0,231.0,7.28,8.03,,47.59359,-54.27349
2018-11-02 04:30:00+00:00,228.0,227.0,7.14,8.32,,47.59359,-54.27349
2018-11-02 04:40:00+00:00,231.0,232.0,6.33,7.04,,47.59359,-54.27349
2018-11-02 04:50:00+00:00,236.0,240.0,5.41,5.98,,47.59359,-54.27349
2018-11-02 05:00:00+00:00,240.0,242.0,5.53,6.38,,47.59359,-54.27349
2018-11-02 05:10:00+00:00,244.0,237.0,5.52,6.95,,47.59359,-54.27349
2018-11-02 05:20:00+00:00,231.0,229.0,5.76,6.66,,47.59359,-54.27349
2018-11-02 05:30:00+00:00,232.0,231.0,6.01,6.64,,47.59359,-54.27349
2018-11-02 05:40:00+00:00,238.0,232.0,4.92,5.61,,47.59359,-54.27349
2018-11-02 05:50:00+00:00,238.0,239.0,5.02,5.71,,47.59359,-54.27349
2018-11-02 06:00:00+00:00,238.0,242.0,5.18,5.75,,47.59359,-54.27349
2018-11-02 06:10:00+00:00,240.0,248.0,4.68,5.94,,47.59359,-54.27349
2018-11-02 06:20:00+00:00,243.0,249.0,4.78,6.83,,47.59359,-54.27349
2018-11-02 06:30:00+00:00,256.0,259.0,5.38,6.12,,47.59359,-54.27349
2018-11-02 06:40:00+00:00,265.0,266.0,6.92,7.53,,47.59359,-54.27349
2018-11-02 06:50:00+00:00,270.0,270.0,6.85,7.78,,47.59359,-54.27349
2018-11-02 07:00:00+00:00,261.0,266.0,5.8,6.4,,47.59359,-54.27349
2018-11-02 07:10:00+00:00,256.0,252.0,6.79,7.51,,47.59359,-54.27349
2018-11-02 07:20:00+00:00,255.0,259.0,6.66,7.54,,47.59359,-54.27349
2018-11-02 07:30:00+00:00,251.0,255.0,6.32,6.92,,47.59359,-54.27349
2018-11-02 07:40:00+00:00,223.0,219.0,7.73,8.9,,47.59359,-54.27349
2018-11-02 07:50:00+00:00,257.0,256.0,7.79,8.48,,47.59359,-54.27349
2018-11-02 08:00:00+00:00,256.0,253.0,7.25,8.21,,47.59359,-54.27349
2018-11-02 08:10:00+00:00,267.0,271.0,5.96,7.01,,47.59359,-54.27349
2018-11-02 08:20:00+00:00,268.0,269.0,5.06,5.86,,47.59359,-54.27349
2018-11-02 08:30:00+00:00,278.0,281.0,5.89,6.54,,47.59359,-54.27349
2018-11-02 08:40:00+00:00,281.0,283.0,7.11,7.76,,47.59359,-54.27349
2018-11-02 08:50:00+00:00,309.0,312.0,8.8,9.99,,47.59359,-54.27349
2018-11-02 09:00:00+00:00,307.0,303.0,8.3,9.83,,47.59359,-54.27349
2018-11-02 09:10:00+00:00,307.0,305.0,9.72,11.34,,47.59359,-54.27349
2018-11-02 09:20:00+00:00,310.0,308.0,6.26,7.21,,47.59359,-54.27349
2018-11-02 09:30:00+00:00,321.0,314.0,5.63,6.64,,47.59359,-54.27349
2018-11-02 09:40:00+00:00,320.0,315.0,6.4,8.54,,47.59359,-54.27349
2018-11-02 09:50:00+00:00,327.0,329.0,5.16,5.87,,47.59359,-54.27349
2018-11-02 10:00:00+00:00,321.0,317.0,6.51,8.27,,47.59359,-54.27349
2018-11-02 10:10:00+00:00,311.0,312.0,7.46,9.04,,47.59359,-54.27349
2018-11-02 10:20:00+00:00,302.0,307.0,8.21,9.18,,47.59359,-54.27349
2018-11-02 10:30:00+00:00,312.0,306.0,8.41,9.72,,47.59359,-54.27349
2018-11-02 10:40:00+00:00,312.0,313.0,8.46,9.56,,47.59359,-54.27349
2018-11-02 10:50:00+00:00,320.0,317.0,8.19,10.09,,47.59359,-54.27349
2018-11-02 11:00:00+00:00,312.0,302.0,6.95,8.79,,47.59359,-54.27349
2018-11-02 11:10:00+00:00,306.0,308.0,5.22,6.56,,47.59359,-54.27349
2018-11-02 11:20:00+00:00,314.0,310.0,6.05,7.09,,47.59359,-54.27349
2018-11-02 11:30:00+00:00,295.0,313.0,4.75,5.53,,47.59359,-54.27349
2018-11-02 11:40:00+00:00,291.0,286.0,6.37,7.58,,47.59359,-54.27349
2018-11-02 11:50:00+00:00,294.0,298.0,6.26,7.09,,47.59359,-54.27349
2018-11-02 12:00:00+00:00,296.0,295.0,7.51,8.81,,47.59359,-54.27349
2018-11-02 12:10:00+00:00,302.0,301.0,6.29,7.74,,47.59359,-54.27349
2018-11-02 12:20:00+00:00,300.0,296.0,7.26,8.72,,47.59359,-54.27349
2018-11-02 12:30:00+00:00,301.0,297.0,4.66,7.51,,47.59359,-54.27349
2018-11-02 12:40:00+00:00,308.0,310.0,7.07,8.37,,47.59359,-54.27349
2018-11-02 12:50:00+00:00,304.0,305.0,6.16,7.28,,47.59359,-54.27349
2018-11-02 13:00:00+00:00,311.0,322.0,6.93,8.56,,47.59359,-54.27349
2018-11-02 13:10:00+00:00,305.0,302.0,7.2,9.16,,47.59359,-54.27349
2018-11-02 13:20:00+00:00,320.0,323.0,6.81,7.67,,47.59359,-54.27349
2018-11-02 13:30:00+00:00,324.0,322.0,6.53,8.04,,47.59359,-54.27349
2018-11-02 13:40:00+00:00,316.0,309.0,6.57,7.54,,47.59359,-54.27349
2018-11-02 13:50:00+00:00,314.0,311.0,5.4,6.84,,47.59359,-54.27349
2018-11-02 14:00:00+00:00,319.0,317.0,6.05,7.07,,47.59359,-54.27349
2018-11-02 14:10:00+00:00,318.0,317.0,5.94,6.7,,47.59359,-54.27349
2018-11-02 14:20:00+00:00,300.0,314.0,3.09,3.78,,47.59359,-54.27349
2018-11-02 14:30:00+00:00,335.0,328.0,6.25,7.5,,47.59359,-54.27349
2018-11-02 14:40:00+00:00,326.0,313.0,5.04,7.01,,47.59359,-54.27349
2018-11-02 14:50:00+00:00,312.0,325.0,5.17,6.23,,47.59359,-54.27349
2018-11-02 15:00:00+00:00,301.0,304.0,5.62,6.26,,47.59359,-54.27349
2018-11-02 15:10:00+00:00,293.0,293.0,6.02,6.46,,47.59359,-54.27349
2018-11-02 15:20:00+00:00,300.0,306.0,6.01,7.26,,47.59359,-54.27349
2018-11-02 15:30:00+00:00,305.0,311.0,3.95,4.73,,47.59359,-54.27349
2018-11-02 15:40:00+00:00,294.0,289.0,4.26,5.07,,47.59359,-54.27349
2018-11-02 15:50:00+00:00,292.0,291.0,3.84,4.41,,47.59359,-54.27349
2018-11-02 16:00:00+00:00,299.0,302.0,4.53,5.57,,47.59359,-54.27349
2018-11-02 16:10:00+00:00,297.0,299.0,5.61,6.06,,47.59359,-54.27349
2018-11-02 16:20:00+00:00,306.0,308.0,5.67,6.72,,47.59359,-54.27349
2018-11-02 16:30:00+00:00,282.0,282.0,6.96,7.38,,47.59359,-54.27349
2018-11-02 16:40:00+00:00,291.0,304.0,4.94,5.73,,47.59359,-54.27349
2018-11-02 16:50:00+00:00,270.0,265.0,5.79,6.78,,47.59359,-54.27349
2018-11-02 17:00:00+00:00,277.0,277.0,7.72,8.14,,47.59359,-54.27349
2018-11-02 17:10:00+00:00,291.0,287.0,6.28,7.5,,47.59359,-54.27349
2018-11-02 17:20:00+00:00,273.0,268.0,6.22,6.95,,47.59359,-54.27349
2018-11-02 17:30:00+00:00,273.0,272.0,4.9,5.43,,47.59359,-54.27349
2018-11-02 17:40:00+00:00,273.0,271.0,5.21,5.9,,47.59359,-54.27349
2018-11-02 17:50:00+00:00,287.0,288.0,5.7,6.82,,47.59359,-54.27349
2018-11-02 18:00:00+00:00,274.0,274.0,4.96,5.65,,47.59359,-54.27349
2018-11-02 18:10:00+00:00,285.0,287.0,5.83,6.52,,47.59359,-54.27349
2018-11-02 18:20:00+00:00,286.0,287.0,5.93,6.76,,47.59359,-54.27349
2018-11-02 18:30:00+00:00,276.0,274.0,6.13,6.79,,47.59359,-54.27349
2018-11-02 18:40:00+00:00,278.0,277.0,6.15,7.15,,47.59359,-54.27349
2018-11-02 18:50:00+00:00,279.0,276.0,5.38,6.31,,47.59359,-54.27349
2018-11-02 19:00:00+00:00,286.0,287.0,4.27,4.62,,47.59359,-54.27349
2018-11-02 19:10:00+00:00,270.0,270.0,4.94,5.41,,47.59359,-54.27349
2018-11-02 19:20:00+00:00,251.0,251.0,5.88,6.52,,47.59359,-54.27349
2018-11-02 19:30:00+00:00,252.0,257.0,5.62,6.67,,47.59359,-54.27349
2018-11-02 19:40:00+00:00,258.0,260.0,5.62,6.19,,47.59359,-54.27349
2018-11-02 19:50:00+00:00,242.0,246.0,4.53,4.95,,47.59359,-54.27349
2018-11-02 20:00:00+00:00,263.0,264.0,5.59,6.71,,47.59359,-54.27349
2018-11-02 20:10:00+00:00,269.0,268.0,6.59,7.44,,47.59359,-54.27349
2018-11-02 20:20:00+00:00,255.0,254.0,6.78,7.6,,47.59359,-54.27349
2018-11-02 20:30:00+00:00,266.0,268.0,5.29,5.83,,47.59359,-54.27349
2018-11-02 20:40:00+00:00,271.0,271.0,5.39,6.17,,47.59359,-54.27349
2018-11-02 20:50:00+00:00,273.0,273.0,4.28,4.73,,47.59359,-54.27349
2018-11-02 21:00:00+00:00,263.0,256.0,4.2,4.82,,47.59359,-54.27349
2018-11-02 21:10:00+00:00,270.0,271.0,5.64,6.32,,47.59359,-54.27349
2018-11-02 21:20:00+00:00,271.0,274.0,5.3,5.9,,47.59359,-54.27349
2018-11-02 21:30:00+00:00,260.0,258.0,4.81,5.56,,47.59359,-54.27349
2018-11-02 21:40:00+00:00,260.0,257.0,5.42,6.05,,47.59359,-54.27349
2018-11-02 21:50:00+00:00,260.0,260.0,5.42,6.14,,47.59359,-54.27349
2018-11-02 22:00:00+00:00,265.0,256.0,4.52,5.24,,47.59359,-54.27349
2018-11-02 22:10:00+00:00,252.0,251.0,3.65,4.43,,47.59359,-54.27349
2018-11-02 22:20:00+00:00,262.0,257.0,4.83,5.27,,47.59359,-54.27349
2018-11-02 22:30:00+00:00,265.0,267.0,4.7,5.47,,47.59359,-54.27349
2018-11-02 22:40:00+00:00,264.0,267.0,4.85,5.41,,47.59359,-54.27349
2018-11-02 22:50:00+00:00,259.0,258.0,4.98,6.06,,47.59359,-54.27349
2018-11-02 23:00:00+00:00,259.0,262.0,5.64,6.24,,47.59359,-54.27349
2018-11-02 23:10:00+00:00,268.0,264.0,4.9,5.82,,47.59359,-54.27349
2018-11-02 23:20:00+00:00,263.0,265.0,5.43,5.79,,47.59359,-54.27349
2018-11-02 23:30:00+00:00,263.0,265.0,4.23,4.82,,47.59359,-54.27349
2018-11-02 23:40:00+00:00,246.0,249.0,2.9,3.42,,47.59359,-54.27349
2018-11-02 23:50:00+00:00,246.0,244.0,3.5,3.89,,47.59359,-54.27349
